Hourly Data Report for October 16, 2016

All times are specified in Local Standard Time (LST). Add 1 hour to adjust for Daylight Saving Time where and when it is observed.

HALL BEACH A
NUNAVUT

68°46'33.000" N
81°14'33.000" W
9.10 m
2402354
71293
YUX

Download Data

Hourly Data (October 2016)
Hourly Data Report for October 16, 2016
Temp Definition
°C
Dew Point Temp Definition
°C
Rel Hum Definition
%
Wind Dir Definition
10's deg

Wind Spd Definition
km/h
Visibility Definition
km
Stn Press Definition
kPa
Hmdx Definition


Wind Chill Definition


Weather Definition


TIME
00:00 Legend Double Dagger -15.6 -17.2 88 24 11 16.1 101.20   -22 LegendNANA
01:00 Legend Double Dagger -15.0 -16.5 89 25 17 16.1 101.21   -23 LegendNANA
02:00 Legend Double Dagger -14.4 -16.1 87 23 9 16.1 101.24   -20 LegendNANA
03:00 Legend Double Dagger -12.2 -13.8 88 25 9 16.1 101.25   -17 LegendNANA
04:00 Legend Double Dagger -11.3 -13.1 87 25 11 16.1 101.27   -17 LegendNANA
05:00 Legend Double Dagger -11.6 -13.5 86 23 13 16.1 101.27   -18 LegendNANA
06:00 Legend Double Dagger -13.0 -15.1 85 22 11 16.1 101.29   -19 LegendNANA
07:00 Legend Double Dagger -12.7 -14.7 85 21 15 16.1 101.30   -20 LegendNANA
08:00 Legend Double Dagger -10.6 -12.8 84 22 15 16.1 101.29   -17 LegendNANA
09:00 Legend Double Dagger -9.5 -11.6 85 23 21 16.1 101.28   -17 LegendNANA
10:00 Legend Double Dagger -9.7 -12.1 83 23 22 16.1 101.29   -18 LegendNANA
11:00 Legend Double Dagger -10.0 -12.2 84 22 18 16.1 101.31   -17 LegendNANA
12:00 Legend Double Dagger -9.7 -12.2 82 24 24 16.1 101.32   -18 LegendNANA
13:00 Legend Double Dagger -9.8 -12.0 84 25 22 16.1 101.33   -18 LegendNANA
14:00 Legend Double Dagger -9.4 -11.5 85 24 22 16.1 101.34   -17 LegendNANA
15:00 Legend Double Dagger -10.0 -12.2 84 22 11 16.1 101.37   -16 LegendNANA
16:00 Legend Double Dagger -10.0 -12.1 85 23 17 16.1 101.34   -17 LegendNANA
17:00 Legend Double Dagger -10.9 -13.0 85 23 11 16.1 101.35   -17 LegendNANA
18:00 Legend Double Dagger -10.3 -12.2 86 22 17 16.1 101.33   -18 LegendNANA
19:00 Legend Double Dagger -9.7 -11.9 84 23 22 16.1 101.33   -18 LegendNANA
20:00 Legend Double Dagger -9.2 -11.1 86 23 22 16.1 101.29   -17 LegendNANA
21:00 Legend Double Dagger -9.1 -11.2 85 24 18 16.1 101.27   -16 LegendNANA
22:00 Legend Double Dagger -8.4 -10.3 86 26 21 16.1 101.25   -16 LegendNANA
23:00 Legend Double Dagger -8.3 -10.1 87 25 22 16.1 101.26   -16 LegendNANA

Notes on Data Quality.

Legend

  • E = Estimated
  • M = Missing
  • NA = Not Available
  • ‡ = Partner data that is not subject to review by the National Climate Archives
Date modified: